This is the latest recevied weather packets stored in our database for station/object KK6LVQ-13. If no packets are shown the sender has not sent any weather packets the latest 10 day(s).
| Time | Temp. | Humidity | Pressure | Rain* | Wind** | Luminosity | Snow |
|---|---|---|---|---|---|---|---|
| 1777774080 | 12.22° C | 87% | 1016.1 hPa | 0 mm | - | 39 W/m² | - |
| 1777773777 | 12.22° C | 87% | 1016.1 hPa | 0 mm | - | 48 W/m² | - |
| 1777773473 | 12.22° C | 87% | 1016.2 hPa | 0 mm | - | 56 W/m² | - |
| 1777772866 | 12.78° C | 86% | 1016.4 hPa | 0 mm | - | 75 W/m² | - |
| 1777772261 | 12.78° C | 85% | 1016.4 hPa | 0 mm | - | 91 W/m² | - |
| 1777771656 | 12.78° C | 85% | 1016.3 hPa | 0 mm | - | 114 W/m² | - |
| 1777770747 | 13.33° C | 84% | 1016.3 hPa | 0 mm | - | 131 W/m² | - |
| 1777770140 | 13.89° C | 83% | 1016.4 hPa | 0 mm | - | 158 W/m² | - |
| 1777768626 | 14.44° C | 81% | 1016.3 hPa | 0 mm | - | 161 W/m² | - |
| 1777768019 | 15° C | 81% | 1016.3 hPa | 0 mm | - | 251 W/m² | - |
| 1777767716 | 15° C | 80% | 1016.4 hPa | 0 mm | - | 171 W/m² | - |
| 1777767412 | 15° C | 80% | 1016.3 hPa | 0 mm | - | 221 W/m² | - |
| 1777766807 | 15.56° C | 78% | 1016.4 hPa | 0 mm | - | 239 W/m² | - |
| 1777766504 | 16.11° C | 77% | 1016.4 hPa | 0 mm | - | 277 W/m² | - |
| 1777764987 | 16.67° C | 76% | 1016.4 hPa | 0 mm | - | 437 W/m² | - |
| 1777764684 | 16.67° C | 76% | 1016.4 hPa | 0 mm | - | 472 W/m² | - |
| 1777764078 | 17.78° C | 75% | 1016.5 hPa | 0 mm | - | 525 W/m² | - |
| 1777761957 | 17.78° C | 74% | 1017 hPa | 0 mm | - | 593 W/m² | - |
| 1777761352 | 17.78° C | 74% | 1017.1 hPa | 0 mm | - | 567 W/m² | - |
| 1777761050 | 17.78° C | 74% | 1017.1 hPa | 0 mm | - | 584 W/m² | - |
| 1777760747 | 17.78° C | 75% | 1017.4 hPa | 0 mm | - | 658 W/m² | - |
| 1777760443 | 17.78° C | 74% | 1017.3 hPa | 0 mm | - | 585 W/m² | - |
| 1777760139 | 18.33° C | 73% | 1017.6 hPa | 0 mm | - | 622 W/m² | - |
| 1777759837 | 17.78° C | 74% | 1017.5 hPa | 0 mm | - | 682 W/m² | - |
| 1777759532 | 17.78° C | 73% | 1017.8 hPa | 0 mm | - | 678 W/m² | - |
* Rain latest hour (hover to see other rain measurements)
** Current wind speed in m/s (hover to see current wind gust speed)